Regional Weather Roundup
Issued by NWS Nashville, TN

Current Version | Previous Version | Text Only | Print | Product List | Glossary On
Versions: 1 2 3 4 5 6 7 8 9 10 11 12 13 14 15 16 17 18 19 20 21 22 23 24 25 26 27 28 29 30 31 32 33 34 35 36 37 38 39 40 41 42 43 44 45 46 47 48 49 50
000
ASUS44 KOHX 240415
RWROHX
MIDDLE TENNESSEE HOURLY WEATHER ROUNDUP
NATIONAL WEATHER SERVICE NASHVILLE TN
1100 PM CDT WED JUL 23 2014

NOTE: "FAIR" INDICATES FEW OR NO CLOUDS BELOW 12,000 FEET WITH
NO SIGNIFICANT WEATHER AND/OR OBSTRUCTIONS TO VISIBILITY.

* THESE REPORTS ARE NOT UNDER NWS QUALITY CONTROL AND MAY NOT
  REPORT WEATHER SUCH AS PRECIPITATION AND FOG.


TNZ005>011-023>034-057-059-062>066-078-080-240500
...NORTHERN MIDDLE TENNESSEE...

CITY           SKY/WX    TMP DP  RH WIND       PRES   REMARKS
CLARKSVILLE    CLEAR     73  67  81 NW3       30.01F
CROSSVILLE     CLOUDY    73  69  87 CALM      30.07F
GALLATIN       MOCLDY    77  70  79 SE5       30.03R
DICKSON        PTCLDY    73  70  88 N6        30.03R
LEBANON        PTCLDY    74  70  87 CALM      30.00S
LIVINGSTON       N/A     68  68 100 CALM      30.04F
NASHVILLE      MOCLDY    78  68  71 NE5       30.02R
WEST NASHVILLE   N/A     77  70  78 CALM      30.01S
PORTLAND       PTCLDY    73  66  78 CALM      30.01S
SMYRNA         MOCLDY    73  70  91 CALM      30.02S
SPARTA         MOCLDY    70  70 100 CALM      30.03S
$$
TNZ056-058-060-061-075>077-079-093>097-240500
...SOUTHERN MIDDLE TENNESSEE...

CITY           SKY/WX    TMP DP  RH WIND       PRES   REMARKS
COLUMBIA       PTCLDY    77  73  88 SW3       30.01S
FAYETTEVILLE   CLEAR     72  72 100 SW7       30.04R
LEWISBURG      CLOUDY    77  72  84 CALM      30.01S
MCMINNVILLE    CLOUDY    72  72 100 W6        30.06S
SHELBYVILLE    CLOUDY    75  72  88 CALM      30.04R
TULLAHOMA      PTCLDY    73  70  88 CALM      30.05S
WINCHESTER     CLEAR     72  70  94 CALM      30.03F
$$


...KEY TO REMARKS...
VSB - VISIBILITY IN MILES
WCI - WIND CHILL INDEX
HX  - HEAT INDEX



USA.gov is the U.S. government's official web portal to all federal, state and local government web resources and services.